Location: Vancouver
(49.2500°N, 123.1330°W)
Time: 07:29:46
(UTC-08:00)

Cosmos 2333 Rocket - Visible Passes

Search period start: 30 January 2015 00:00
Search period end: 09 February 2015 00:00
Orbit: 840 x 861 km, 70.9° (Epoch: 29 January)

Date Brightness Start Highest point End Pass type
(mag) Time Alt. Az. Time Alt. Az. Time Alt. Az.
30 Jan 4.7 05:17:54 10° N 05:19:49 12° NNE 05:21:53 10° NE visible
30 Jan 3.6 07:00:45 10° NNW 07:05:58 36° NE 07:11:14 10° ESE visible
31 Jan 4.7 05:05:38 10° N 05:07:32 12° NNE 05:09:37 10° NE visible
31 Jan 3.6 06:48:29 10° NNW 06:53:42 36° NE 06:58:58 10° ESE visible
01 Feb 4.7 04:53:21 10° N 04:55:17 12° NNE 04:57:21 10° NE visible
01 Feb 3.6 06:36:13 10° NNW 06:41:26 36° NE 06:46:41 10° ESE visible
02 Feb 4.7 04:41:05 10° N 04:43:01 12° NNE 04:45:05 10° NE visible
02 Feb 3.6 06:23:57 10° NNW 06:29:10 36° NE 06:34:25 10° ESE visible
03 Feb 4.8 04:28:49 10° N 04:30:44 12° NNE 04:32:49 10° NE visible
03 Feb 3.6 06:11:41 10° NNW 06:16:53 36° NE 06:22:09 10° ESE visible
04 Feb 4.8 04:16:32 10° N 04:18:28 12° NNE 04:20:33 10° NE visible
04 Feb 3.6 05:59:24 10° NNW 06:04:37 36° NE 06:09:53 10° ESE visible
05 Feb 4.8 04:04:16 10° N 04:06:12 12° NNE 04:08:17 10° NE visible
05 Feb 3.6 05:47:08 10° NNW 05:52:21 36° NE 05:57:37 10° ESE visible
06 Feb 4.8 03:52:00 10° N 03:53:56 12° NNE 03:56:01 10° NE visible
06 Feb 3.6 05:34:52 10° NNW 05:40:05 36° NE 05:45:21 10° ESE visible
07 Feb 4.9 03:39:43 10° N 03:41:40 12° NNE 03:43:45 10° NE visible
07 Feb 3.6 05:22:36 10° NNW 05:27:49 36° NE 05:33:05 10° ESE visible
08 Feb 4.9 03:27:35 10° N 03:29:24 12° NNE 03:31:29 10° NE visible
08 Feb 3.6 05:10:20 10° NNW 05:15:33 36° NE 05:20:49 10° ESE visible
08 Feb 2.5 06:54:33 10° NW 07:00:02 48° WSW 07:05:31 10° S visible
